STARLINK-33583, 63503

Orbit data source: Space-Track

STARLINK-33583, 63503 is a payload satellite owned by SpaceX/Seattle (US) in LEO that was launched on Mon, 07 Apr 2025 UTC via an FALCON 9 launch vehicle from the Air Force Western Test Range (AFWTR). Payload-class satellites include a variety of spacecraft equipped with specific instruments for various scientific and technological missions. These include communications satellites like Starlink; space stations such as the ISS; scientific satellites like the Hubble; Earth observation satellites from companies like Planet Labs, Umbra, and HawkEye 360; GPS; miniature CubeSats for education and research; and military/defense satellites.

Loading next visibility...
Identifier
63503, 2025-071L
Orbit
LEO
Country
Flag of USUS
Related business
Manufacturer
SpaceX/Seattle
Mission
Operational Commercial Communications
Bus & Motor
STARLINK V2MO, Unknown motor
Mass
575 kg wet, ~530 kg dry
Launch date (UTC)
2025-04-07 (1 year ago)
Launch vehicle
FALCON 9
Launch site
Air Force Western Test Range (AFWTR)
Object type
Payload
Rocket body
Debris
Shape & HBR
Box + 2 Pan, 17.7 m
Radar Cross Section
36.964 m², Large (>1 m²)

Expand to show TLE details & history
Last TLE update: 13 hours ago

TLE from 13 hours ago
0 STARLINK-33583
1 63503U 25071L   26171.30546079  .00050844  00000-0  91575-3 0  9994
2 63503  53.1592  20.2265 0000869  99.8526 260.2581 15.49325568 68537
Epoch: 2026-06-20T07:19Z
TLE epoch observation values (Epoch: 2026-06-20T07:19:51.812Z)
Latitude
-0.00003°
Longitude
1.73861°
Altitude
419.705 km
Speed
7.661 km/s
True Right ascension
01h 20m 54s
True Declination
0° 00' 00"
Sunlit
Object was in daylight at epoch
Visualization orbit readout
Latitude
Unknown
Longitude
Unknown
Altitude
Unknown
Speed
Unknown
Apparent Right ascension
Unknown
Apparent Declination
Unknown
Sunlit
N/A
Visualization observer readout
Local Sidereal Time
07:18:44
Azimuth
Unknown
Elevation
Unknown
Doppler factor
Unknown
Orbital elements
Apogee altitude
419.547 km
Perigee altitude
418.366 km
Semi-major axis
6,797.093 km
Eccentricity
0.00009
Inclination
53.1592°
RAAN
20.2265°
Arg. of periapsis
99.8526°
True anomaly
260.24829°
Mean anomaly
260.2581°
Eccentric anomaly
260.25319°
Mean motion
3.8731 °/min
Orbital period
92.95 mins
BSTAR
0.00091575
Loading maneuver chart data...
Computing Atmospheric mass density...
Loading historical data...
Loading historical data...
Loading historical data...
Loading historical data...
Loading historical data...
Loading historical data...
Loading historical data...

Documentation

Showing up to 5 results
|